Voltar ao catálogo

NEE 02 KRYSAOR

AtivoCiênciaSSO
NORAD 39441·PAYLOAD·🇪🇨 Ecuador

Lançado Nov 21, 2013 de Dombarovsky

Loading…

Próximas Passagens (próximas 24 horas)

TLE

AtualizadoSource: Space-Track

Época: Sep 14, 2026, 18:52 UTC

1 39441U 13066AB  26257.78617252  .00001306  00000-0  14665-3 0  9992
2 39441  97.8936 196.3996 0066664 134.8198 225.8464 14.86906159689519

Acompanhe NEE 02 KRYSAOR em tempo real com AllMySat

Download on the App Store